TimeCST,TemperatureF,Dew PointF,Humidity,Sea Level PressureIn,VisibilityMPH,Wind Direction,Wind SpeedMPH,Gust SpeedMPH,PrecipitationIn,Events,Conditions,WindDirDegrees,DateUTC
12:53 AM,50.0,26.1,39,29.92,10.0,SSW,11.5,-,N/A,,Clear,210,2012-11-21 06:53:00
1:53 AM,50.0,26.1,39,29.91,10.0,SW,6.9,-,N/A,,Clear,220,2012-11-21 07:53:00
2:53 AM,50.0,27.0,41,29.90,10.0,SSW,8.1,-,N/A,,Clear,210,2012-11-21 08:53:00
3:53 AM,50.0,26.1,39,29.88,10.0,WSW,9.2,-,N/A,,Clear,240,2012-11-21 09:53:00
4:53 AM,46.9,26.1,44,29.89,10.0,West,5.8,-,N/A,,Clear,270,2012-11-21 10:53:00
5:53 AM,46.9,26.1,44,29.90,10.0,SSW,6.9,-,N/A,,Clear,200,2012-11-21 11:53:00
6:53 AM,48.9,27.0,43,29.87,10.0,SSW,10.4,-,N/A,,Clear,200,2012-11-21 12:53:00
7:53 AM,50.0,26.1,39,29.86,10.0,SSW,13.8,-,N/A,,Clear,210,2012-11-21 13:53:00
8:53 AM,51.1,26.1,38,29.84,10.0,SSW,16.1,-,N/A,,Clear,210,2012-11-21 14:53:00
9:53 AM,57.0,26.1,30,29.81,10.0,SSW,13.8,-,N/A,,Clear,210,2012-11-21 15:53:00
10:53 AM,60.1,27.0,28,29.82,10.0,SW,13.8,-,N/A,,Clear,230,2012-11-21 16:53:00
11:53 AM,68.0,28.0,22,29.77,10.0,SSW,13.8,-,N/A,,Clear,210,2012-11-21 17:53:00
12:53 PM,73.0,28.0,19,29.73,10.0,SSW,12.7,-,N/A,,Clear,200,2012-11-21 18:53:00
1:53 PM,75.0,27.0,17,29.70,10.0,SW,10.4,-,N/A,,Clear,220,2012-11-21 19:53:00
2:53 PM,75.9,26.1,16,29.68,10.0,SSW,16.1,19.6,N/A,,Clear,210,2012-11-21 20:53:00
3:53 PM,72.0,26.1,18,29.68,10.0,SSW,9.2,-,N/A,,Clear,200,2012-11-21 21:53:00
4:53 PM,66.9,26.1,21,29.67,10.0,SSW,9.2,-,N/A,,Clear,200,2012-11-21 22:53:00
5:53 PM,63.0,25.0,24,29.68,10.0,SSW,10.4,-,N/A,,Clear,200,2012-11-21 23:53:00
6:53 PM,63.0,23.0,22,29.68,10.0,SW,10.4,-,N/A,,Clear,220,2012-11-22 00:53:00
7:53 PM,60.1,23.0,24,29.67,10.0,SSW,11.5,-,N/A,,Clear,210,2012-11-22 01:53:00
8:53 PM,57.9,23.0,26,29.67,10.0,SSW,15.0,-,N/A,,Clear,200,2012-11-22 02:53:00
9:53 PM,55.9,23.0,28,29.67,10.0,SSW,13.8,-,N/A,,Clear,210,2012-11-22 03:53:00
10:53 PM,55.9,24.1,29,29.66,10.0,SSW,16.1,-,N/A,,Clear,210,2012-11-22 04:53:00
11:53 PM,55.9,24.1,29,29.65,10.0,SSW,13.8,-,N/A,,Clear,210,2012-11-22 05:53:00